ONEWEB-0330, 49108

Orbit data source: Space-Track

ONEWEB-0330, 49108 is a payload satellite owned by One Web (NAA) (UK) in LEO that was launched on Sat, 21 Aug 2021 UTC via a SOYUZ-2-1B launch vehicle from the Tyuratam Missile And Space Complex (TTMTR). Payload-class satellites include a variety of spacecraft equipped with specific instruments for various scientific and technological missions. These include communications satellites like Starlink; space stations such as the ISS; scientific satellites like the Hubble; Earth observation satellites from companies like Planet Labs, Umbra, and HawkEye 360; GPS; miniature CubeSats for education and research; and military/defense satellites.

Loading next visibility...
Identifier
49108, 2021-075AK
Orbit
LEO
Country
Flag of UKUK
Related business
Manufacturer
One Web
Mission
Operational Commercial Communications
Bus & Motor
ARROW, Unknown motor
Mass
148 kg wet, ~140 kg dry
Launch date (UTC)
2021-08-21 (5 years ago)
Launch vehicle
SOYUZ-2-1B
Launch site
Tyuratam Missile And Space Complex (TTMTR)
Object type
Payload
Rocket body
Debris
Shape & HBR
Trap Box + 2 Pan, 6.7 m
Radar Cross Section
3.464 m², Large (>1 m²)

Expand to show TLE details & history
Last TLE update: 9 hours ago

TLE from 9 hours ago
0 ONEWEB-0330
1 49108U 21075AK  26130.16158610 -.00000014  00000-0 -69261-4 0  9992
2 49108  87.9173  13.4472 0001594  85.2756 274.8558 13.17648064228610
Epoch: 2026-05-10T03:52Z
TLE epoch observation values (Epoch: 2026-05-10T03:52:41.039Z)
Latitude
0.00005°
Longitude
87.30757°
Altitude
1,196.513 km
Speed
7.256 km/s
True Right ascension
00h 53m 47s
True Declination
0° 00' 00"
Sunlit
Object was in daylight at epoch
Visualization orbit readout
Latitude
Unknown
Longitude
Unknown
Altitude
Unknown
Speed
Unknown
Apparent Right ascension
Unknown
Apparent Declination
Unknown
Sunlit
N/A
Visualization observer readout
Local Sidereal Time
21:22:23
Azimuth
Unknown
Elevation
Unknown
Doppler factor
Unknown
Orbital elements
Apogee altitude
1,192.032 km
Perigee altitude
1,189.619 km
Semi-major axis
7,568.963 km
Eccentricity
0.00016
Inclination
87.9173°
RAAN
13.4472°
Arg. of periapsis
85.2756°
True anomaly
274.8376°
Mean anomaly
274.8558°
Eccentric anomaly
274.8467°
Mean motion
3.29601 °/min
Orbital period
109.22 mins
BSTAR
-0.000069261
Loading maneuver chart data...
Computing Atmospheric mass density...
Loading historical data...
Loading historical data...
Loading historical data...
Loading historical data...
Loading historical data...
Loading historical data...
Loading historical data...

Documentation

Showing up to 5 results
|